Weather History for Ft Riley, KS

Change the Weather History Date:

Tuesday, February 4, 2014

  Actual Average (KMHK) Record (KMHK)
Temperature  
Mean Temperature 18 °F 31 °F  
Max Temperature 27 °F 43 °F 64 °F (2005)
Min Temperature 9 °F 19 °F 5 °F (2007)
Degree Days  
Heating Degree Days 46 34  
Month to date heating degree days 139  
Since 1 July heating degree days 3405  
Cooling Degree Days 0 0  
Month to date cooling degree days 0  
Year to date cooling degree days 0  
Moisture  
Dew Point 21 °F    
Average Humidity 96    
Maximum Humidity 100    
Minimum Humidity 77    
Precipitation  
Precipitation 0.13 in 0.03 in 0.29 in (2014)
Month to date precipitation 0.13  
Year to date precipitation 0.78  
Sea Level Pressure  
Sea Level Pressure 30.12 in    
Wind  
Wind Speed 13 mph (NE)    
Max Wind Speed 24 mph    
Max Gust Speed 34 mph    
Visibility 2 miles    
Events Fog , Snow    
T = Trace of Precipitation, MM = Missing Value Source: NWS Daily Summary

Daily Weather History Graph

Daily Weather History Graph

Search for Another Location

Airport:

Trip Planner

Search our weather history database for the weather conditions in past years. The results will help you decide how hot, cold, wet, or windy it might be!

Date:

Astronomy

Feb. 04, 2014 Rise Set
Actual Time 7:30 AM CST 5:51 PM CST
Civil Twilight 7:02 AM CST 6:19 PM CST
Nautical Twilight 6:30 AM CST 6:51 PM CST
Astronomical Twilight 5:59 AM CST 7:22 PM CST
Moon 10:12 AM CST (2/4) 11:43 PM CST (2/4)
Length of Visible Light 11h 17m
Length of Day
10h 21m
Waxing Crescent, 29% of the Moon is Illuminated
Feb 4
Waxing Crescent
Feb 6
First Quarter
Feb 14
Full
Feb 22
Last Quarter
Mar 1
New

Hourly Weather History & Observations

Time (CST) Temp. Windchill Dew Point Humidity Pressure Visibility Wind Dir Wind Speed Gust Speed Precip Events Conditions
12:58 AM 27.7 °F 18.2 °F 21.4 °F 77% 30.20 in 10.0 mi NE 10.4 mph - N/A   Overcast
1:18 AM 26.6 °F 16.8 °F 21.2 °F 80% 30.16 in 10.0 mi NE 10.4 mph - N/A   Overcast
1:58 AM 26.8 °F 17.7 °F 21.6 °F 81% 30.20 in 10.0 mi NE 9.2 mph - 0.00 in Snow Light Snow
2:03 AM 26.6 °F 16.2 °F 21.2 °F 80% 30.16 in 10.0 mi NE 11.5 mph - N/A   Scattered Clouds
2:28 AM 26.6 °F 16.2 °F 21.2 °F 80% 30.17 in 10.0 mi NE 11.5 mph - N/A   Mostly Cloudy
2:33 AM 26.6 °F 17.5 °F 21.2 °F 80% 30.17 in 7.0 mi ENE 9.2 mph - N/A Snow Light Snow
2:38 AM 26.6 °F 17.5 °F 21.2 °F 80% 30.17 in 3.0 mi ENE 9.2 mph - N/A Snow Light Snow
2:43 AM 26.6 °F 16.8 °F 23.0 °F 86% 30.17 in 2.0 mi NE 10.4 mph - N/A Snow Light Snow
2:48 AM 26.6 °F 19.1 °F 23.0 °F 86% 30.18 in 1.8 mi ENE 6.9 mph - N/A Snow Light Snow
2:53 AM 24.8 °F 16.1 °F 24.8 °F 100% 30.17 in 2.5 mi ENE 8.1 mph - N/A Snow Light Snow
2:58 AM 25.5 °F 16.9 °F 24.1 °F 94% 30.20 in 3.0 mi NE 8.1 mph - 0.00 in Snow Light Snow
3:03 AM 24.8 °F 16.1 °F 24.8 °F 100% 30.17 in 2.0 mi NE 8.1 mph - N/A Snow Light Snow
3:08 AM 24.8 °F 16.1 °F 24.8 °F 100% 30.17 in 1.2 mi NE 8.1 mph - N/A Snow Light Snow
3:13 AM 24.8 °F 15.3 °F 24.8 °F 100% 30.17 in 0.8 mi NE 9.2 mph - N/A Snow Light Snow
3:23 AM 24.8 °F 16.1 °F 24.8 °F 100% 30.17 in 0.8 mi ENE 8.1 mph - N/A Snow Light Snow
3:28 AM 24.8 °F 16.1 °F 24.8 °F 100% 30.17 in 0.8 mi ENE 8.1 mph - N/A Snow Light Snow
3:33 AM 24.8 °F 16.1 °F 24.8 °F 100% 30.17 in 0.8 mi NE 8.1 mph - N/A Snow Light Snow
3:48 AM 24.8 °F 16.1 °F 24.8 °F 100% 30.17 in 1.0 mi NE 8.1 mph - N/A Snow Light Snow
3:58 AM 24.8 °F 14.6 °F 24.6 °F 99% 30.20 in 1.0 mi ENE 10.4 mph - 0.03 in Snow Light Snow
4:03 AM 24.8 °F 14.6 °F 24.8 °F 100% 30.17 in 0.8 mi ENE 10.4 mph - N/A Snow Light Snow
4:18 AM 24.8 °F 15.3 °F 24.8 °F 100% 30.17 in 1.0 mi ENE 9.2 mph - N/A Snow Light Snow
4:23 AM 24.8 °F 14.0 °F 24.8 °F 100% 30.16 in 1.0 mi ENE 11.5 mph - N/A Snow Light Snow
4:33 AM 24.8 °F 15.3 °F 24.8 °F 100% 30.17 in 1.2 mi ENE 9.2 mph - N/A Snow Light Snow
4:38 AM 24.8 °F 15.3 °F 24.8 °F 100% 30.17 in 1.0 mi ENE 9.2 mph - N/A Snow Light Snow
4:48 AM 24.8 °F 17.9 °F 24.8 °F 100% 30.17 in 0.8 mi ENE 5.8 mph - N/A Snow Light Snow
4:58 AM 24.8 °F 16.1 °F 24.6 °F 99% 30.20 in 1.0 mi ENE 8.1 mph - 0.04 in Snow Light Snow
5:08 AM 24.8 °F 14.6 °F 24.8 °F 100% 30.16 in 1.2 mi NE 10.4 mph - N/A Snow Light Snow
5:13 AM 24.8 °F 14.0 °F 24.8 °F 100% 30.16 in 1.8 mi NE 11.5 mph - N/A Snow Light Snow
5:18 AM 24.8 °F 12.4 °F 24.8 °F 100% 30.15 in 2.5 mi NE 15.0 mph - N/A Snow Light Snow
5:23 AM 24.8 °F 13.4 °F 24.8 °F 100% 30.15 in 3.0 mi NE 12.7 mph - N/A Snow Light Snow
5:31 AM 24.8 °F 14.6 °F 24.8 °F 100% 30.16 in 7.0 mi ENE 10.4 mph - N/A   Mostly Cloudy
5:33 AM 24.8 °F 14.0 °F 24.8 °F 100% 30.16 in 8.0 mi ENE 11.5 mph - N/A   Overcast
5:35 AM 24.8 °F 14.6 °F 24.8 °F 100% 30.16 in 9.0 mi ENE 10.4 mph - N/A   Overcast
5:44 AM 24.8 °F 14.6 °F 24.8 °F 100% 30.15 in 9.0 mi NE 10.4 mph - N/A   Mostly Cloudy
5:49 AM 24.8 °F 14.0 °F 24.8 °F 100% 30.15 in 7.0 mi NE 11.5 mph - N/A   Overcast
5:58 AM 24.4 °F 14.2 °F 24.3 °F 99% 30.17 in 5.0 mi NE 10.4 mph - 0.01 in Snow Light Snow
6:13 AM 24.8 °F 12.9 °F 24.8 °F 100% 30.13 in 2.5 mi NE 13.8 mph - N/A Snow Light Snow
6:18 AM 24.8 °F 13.4 °F 24.8 °F 100% 30.13 in 2.0 mi NE 12.7 mph - N/A Snow Light Snow
6:33 AM 24.8 °F 12.9 °F 23.0 °F 93% 30.12 in 2.0 mi NE 13.8 mph - N/A Snow Light Snow
6:48 AM 23.0 °F 10.1 °F 23.0 °F 100% 30.12 in 2.0 mi NE 15.0 mph - N/A Snow Light Snow
6:53 AM 23.0 °F 10.1 °F 23.0 °F 100% 30.11 in 2.5 mi NE 15.0 mph - N/A Snow Light Snow
6:58 AM 23.9 °F 10.8 °F 23.7 °F 99% 30.14 in 2.5 mi NE 16.1 mph - 0.00 in Snow Light Snow
7:08 AM 23.0 °F 11.1 °F 23.0 °F 100% 30.11 in 2.5 mi NE 12.7 mph - N/A Snow Light Snow
7:13 AM 23.0 °F 11.1 °F 23.0 °F 100% 30.10 in 3.0 mi NE 12.7 mph - N/A Snow Light Snow
7:23 AM 23.0 °F 11.1 °F 23.0 °F 100% 30.10 in 2.0 mi NE 12.7 mph - N/A Snow Light Snow
7:28 AM 23.0 °F 9.6 °F 23.0 °F 100% 30.10 in 1.8 mi NE 16.1 mph - N/A Snow Light Snow
7:33 AM 23.0 °F 9.6 °F 23.0 °F 100% 30.10 in 2.0 mi NE 16.1 mph - N/A Snow Light Snow
7:38 AM 23.0 °F 8.3 °F 23.0 °F 100% 30.09 in 2.5 mi NE 19.6 mph - N/A Snow Light Snow
7:43 AM 23.0 °F 9.6 °F 23.0 °F 100% 30.09 in 3.0 mi NE 16.1 mph - N/A Snow Light Snow
7:53 AM 23.0 °F 10.1 °F 23.0 °F 100% 30.09 in 2.5 mi NE 15.0 mph - N/A Snow Light Snow
7:58 AM 23.2 °F 10.3 °F 23.0 °F 99% 30.13 in 1.8 mi NE 15.0 mph - 0.00 in Snow Light Snow
8:03 AM 23.0 °F 9.6 °F 23.0 °F 100% 30.09 in 1.5 mi NE 16.1 mph - N/A Snow Light Snow
8:08 AM 23.0 °F 10.1 °F 23.0 °F 100% 30.09 in 1.8 mi NE 15.0 mph - N/A Snow Light Snow
8:13 AM 23.0 °F 10.1 °F 23.0 °F 100% 30.10 in 1.5 mi NE 15.0 mph - N/A Snow Light Snow
8:33 AM 23.0 °F 10.6 °F 23.0 °F 100% 30.11 in 1.2 mi NE 13.8 mph - N/A Snow Light Snow
8:38 AM 23.0 °F 10.6 °F 23.0 °F 100% 30.10 in 1.0 mi NE 13.8 mph - N/A Snow Light Snow
8:43 AM 23.0 °F 10.6 °F 23.0 °F 100% 30.11 in 1.2 mi NE 13.8 mph - N/A Snow Light Snow
8:58 AM 23.0 °F 11.7 °F 22.8 °F 99% 30.14 in 1.0 mi NE 11.5 mph - 0.00 in Snow Light Snow
9:08 AM 23.0 °F 11.1 °F 23.0 °F 100% 30.09 in 0.8 mi NE 12.7 mph - N/A Snow Light Snow
9:23 AM 23.0 °F 9.6 °F 23.0 °F 100% 30.08 in 1.0 mi NE 16.1 mph - N/A Snow Light Snow
9:33 AM 23.0 °F 10.1 °F 23.0 °F 100% 30.09 in 0.8 mi NE 15.0 mph - N/A Snow Light Snow
9:48 AM 23.0 °F 9.6 °F 23.0 °F 100% 30.08 in 0.8 mi NE 16.1 mph - N/A Snow Light Snow
9:53 AM 23.0 °F 10.6 °F 23.0 °F 100% 30.07 in 1.2 mi NNE 13.8 mph - N/A Snow Light Snow
9:58 AM 23.0 °F 10.6 °F 23.0 °F 100% 30.11 in 1.5 mi NE 13.8 mph - 0.00 in Snow Light Snow
10:03 AM 23.0 °F 10.6 °F 23.0 °F 100% 30.08 in 1.8 mi NE 13.8 mph - N/A Snow Light Snow
10:08 AM 23.0 °F 10.6 °F 23.0 °F 100% 30.08 in 1.5 mi NE 13.8 mph - N/A Snow Light Snow
10:13 AM 23.0 °F 11.7 °F 23.0 °F 100% 30.09 in 1.2 mi NE 11.5 mph - N/A Snow Light Snow
10:18 AM 23.0 °F 12.4 °F 23.0 °F 100% 30.09 in 1.0 mi NE 10.4 mph - N/A Snow Light Snow
10:28 AM 23.0 °F 12.4 °F 23.0 °F 100% 30.09 in 0.8 mi NE 10.4 mph - N/A Snow Light Snow
10:43 AM 23.0 °F 11.7 °F 23.0 °F 100% 30.10 in 0.5 mi NE 11.5 mph - N/A Fog , Snow Light Freezing Fog
10:48 AM 23.0 °F 12.4 °F 23.0 °F 100% 30.10 in 0.5 mi NE 10.4 mph - N/A Fog , Snow Light Freezing Fog
10:58 AM 22.6 °F 10.7 °F 22.5 °F 99% 30.14 in 0.5 mi NE 12.7 mph - 0.02 in Fog , Snow Light Freezing Fog
11:03 AM 23.0 °F 10.1 °F 23.0 °F 100% 30.10 in 0.8 mi NE 15.0 mph - N/A Snow Light Snow
11:13 AM 23.0 °F 10.6 °F 23.0 °F 100% 30.10 in 0.8 mi NE 13.8 mph - N/A Snow Light Snow
11:33 AM 23.0 °F 9.6 °F 23.0 °F 100% 30.09 in 0.5 mi NE 16.1 mph - N/A Fog , Snow Light Freezing Fog
11:38 AM 23.0 °F 9.2 °F 23.0 °F 100% 30.09 in 0.8 mi NE 17.3 mph - N/A Snow Light Snow
11:58 AM 22.5 °F 9.4 °F 22.3 °F 99% 30.13 in 0.8 mi NE 15.0 mph - 0.01 in Snow Light Snow
12:03 PM 23.0 °F 9.6 °F 23.0 °F 100% 30.08 in 0.5 mi NE 16.1 mph - N/A Fog , Snow Light Freezing Fog
12:13 PM 23.0 °F 10.6 °F 21.2 °F 93% 30.08 in 0.5 mi NE 13.8 mph - N/A Fog , Snow Light Freezing Fog
12:18 PM 23.0 °F 9.6 °F 21.2 °F 93% 30.08 in 0.2 mi NE 16.1 mph - N/A Fog , Snow Light Freezing Fog
12:23 PM 21.2 °F 7.3 °F 21.2 °F 100% 30.08 in 0.5 mi NE 16.1 mph - N/A Fog , Snow Light Freezing Fog
12:33 PM 21.2 °F 7.8 °F 21.2 °F 100% 30.07 in 0.8 mi NE 15.0 mph - N/A Snow Light Snow
12:38 PM 21.2 °F 6.8 °F 21.2 °F 100% 30.06 in 0.8 mi NE 17.3 mph - N/A Snow Light Snow
12:43 PM 21.2 °F 7.3 °F 21.2 °F 100% 30.06 in 0.5 mi NE 16.1 mph - N/A Fog , Snow Light Freezing Fog
12:58 PM 22.1 °F 8.5 °F 21.9 °F 99% 30.10 in 0.5 mi NE 16.1 mph - 0.01 in Fog , Snow Light Freezing Fog
1:03 PM 23.0 °F 9.2 °F 21.2 °F 93% 30.05 in 0.8 mi NE 17.3 mph - N/A Snow Light Snow
1:08 PM 23.0 °F 9.6 °F 21.2 °F 93% 30.05 in 0.8 mi NE 16.1 mph 23.0 mph N/A Snow Light Snow
1:13 PM 23.0 °F 8.7 °F 21.2 °F 93% 30.05 in 1.2 mi NE 18.4 mph 21.9 mph N/A Snow Light Snow
1:18 PM 23.0 °F 9.6 °F 23.0 °F 100% 30.04 in 1.5 mi NE 16.1 mph - N/A Snow Light Snow
1:23 PM 23.0 °F 9.6 °F 23.0 °F 100% 30.04 in 1.2 mi NNE 16.1 mph - N/A Snow Light Snow
1:28 PM 23.0 °F 9.2 °F 23.0 °F 100% 30.04 in 1.5 mi NNE 17.3 mph - N/A Snow Light Snow
1:38 PM 23.0 °F 9.2 °F 23.0 °F 100% 30.03 in 1.2 mi NE 17.3 mph - N/A Snow Light Snow
1:43 PM 23.0 °F 9.6 °F 23.0 °F 100% 30.03 in 0.8 mi NNE 16.1 mph - N/A Snow Light Snow
1:48 PM 23.0 °F 8.3 °F 23.0 °F 100% 30.03 in 0.5 mi NE 19.6 mph - N/A Fog , Snow Light Freezing Fog
1:58 PM 22.6 °F 9.2 °F 22.5 °F 99% 30.07 in 0.5 mi NE 16.1 mph - 0.00 in Fog , Snow Light Freezing Fog
2:08 PM 23.0 °F 8.3 °F 23.0 °F 100% 30.02 in 0.8 mi NNE 19.6 mph - N/A Snow Light Snow
2:13 PM 23.0 °F 8.3 °F 23.0 °F 100% 30.01 in 1.0 mi NE 19.6 mph - N/A Snow Light Snow
2:18 PM 23.0 °F 8.3 °F 21.2 °F 93% 30.01 in 1.2 mi NNE 19.6 mph 26.5 mph N/A Snow Light Snow
2:23 PM 23.0 °F 8.7 °F 21.2 °F 93% 30.01 in 1.5 mi NNE 18.4 mph 26.5 mph N/A Snow Light Snow
2:28 PM 23.0 °F 8.3 °F 21.2 °F 93% 30.01 in 1.8 mi NNE 19.6 mph 27.6 mph N/A Snow Light Snow
2:33 PM 23.0 °F 8.0 °F 21.2 °F 93% 30.01 in 1.8 mi NE 20.7 mph 27.6 mph N/A Snow Light Snow
2:38 PM 23.0 °F 8.3 °F 21.2 °F 93% 30.01 in 2.0 mi NNE 19.6 mph 25.3 mph N/A Snow Light Snow
2:43 PM 23.0 °F 8.3 °F 21.2 °F 93% 30.01 in 1.8 mi NNE 19.6 mph 25.3 mph N/A Snow Light Snow
2:58 PM 22.1 °F 6.4 °F 21.6 °F 98% 30.04 in 1.5 mi NE 21.9 mph - 0.00 in Snow Light Snow
3:08 PM 21.2 °F 4.9 °F 21.2 °F 100% 30.00 in 1.2 mi NE 23.0 mph 31.1 mph N/A Snow Light Snow
3:23 PM 21.2 °F 6.4 °F 21.2 °F 100% 30.01 in 1.5 mi NNE 18.4 mph 25.3 mph N/A Snow Light Snow
3:33 PM 21.2 °F 4.5 °F 21.2 °F 100% 30.02 in 1.0 mi NNE 24.2 mph 29.9 mph N/A Snow Light Snow
3:38 PM 21.2 °F 5.6 °F 21.2 °F 100% 30.02 in 0.8 mi NE 20.7 mph 29.9 mph N/A Snow Light Snow
3:43 PM 21.2 °F 6.8 °F 21.2 °F 100% 30.03 in 1.0 mi NNE 17.3 mph 26.5 mph N/A Snow Light Snow
3:48 PM 21.2 °F 6.0 °F 21.2 °F 100% 30.02 in 1.2 mi NE 19.6 mph 26.5 mph N/A Snow Light Snow
3:53 PM 21.2 °F 7.3 °F 21.2 °F 100% 30.03 in 1.8 mi NE 16.1 mph 26.5 mph N/A Snow Light Snow
3:58 PM 21.4 °F 7.1 °F 20.7 °F 97% 30.07 in 1.8 mi NNE 17.3 mph - 0.00 in Snow Light Snow
4:03 PM 21.2 °F 6.4 °F 21.2 °F 100% 30.03 in 2.0 mi NNE 18.4 mph - N/A Snow Light Snow
4:08 PM 21.2 °F 6.0 °F 21.2 °F 100% 30.03 in 1.8 mi NE 19.6 mph - N/A Snow Light Snow
4:13 PM 21.2 °F 6.4 °F 21.2 °F 100% 30.03 in 1.5 mi NNE 18.4 mph - N/A Snow Light Snow
4:18 PM 21.2 °F 6.4 °F 19.4 °F 93% 30.04 in 1.0 mi NNE 18.4 mph 25.3 mph N/A Snow Light Snow
4:38 PM 21.2 °F 6.4 °F 21.2 °F 100% 30.05 in 1.2 mi NNE 18.4 mph - N/A Snow Light Snow
4:48 PM 21.2 °F 7.8 °F 21.2 °F 100% 30.05 in 1.0 mi NNE 15.0 mph - N/A Snow Light Snow
4:58 PM 20.7 °F 6.1 °F 20.5 °F 99% 30.10 in 1.0 mi NNE 17.3 mph - 0.00 in Snow Light Snow
5:08 PM 21.2 °F 7.3 °F 19.4 °F 93% 30.06 in 1.0 mi NNE 16.1 mph - N/A Snow Light Snow
5:13 PM 19.4 °F 5.0 °F 19.4 °F 100% 30.06 in 1.2 mi NNE 16.1 mph - N/A Snow Light Snow
5:18 PM 19.4 °F 4.5 °F 19.4 °F 100% 30.06 in 1.0 mi NNE 17.3 mph - N/A Snow Light Snow
5:28 PM 19.4 °F 5.0 °F 19.4 °F 100% 30.07 in 1.2 mi NNE 16.1 mph - N/A Snow Light Snow
5:33 PM 19.4 °F 5.0 °F 19.4 °F 100% 30.07 in 1.5 mi NNE 16.1 mph - N/A Snow Light Snow
5:38 PM 19.4 °F 5.5 °F 19.4 °F 100% 30.07 in 1.8 mi NNE 15.0 mph - N/A Snow Light Snow
5:58 PM 20.5 °F 6.4 °F 20.1 °F 99% 30.12 in 2.0 mi NNE 16.1 mph - 0.00 in Snow Light Snow
6:03 PM 21.2 °F 7.8 °F 19.4 °F 93% 30.09 in 2.5 mi NNE 15.0 mph - N/A Snow Light Snow
6:13 PM 21.2 °F 7.8 °F 19.4 °F 93% 30.09 in 3.0 mi NNE 15.0 mph 20.7 mph N/A Snow Light Snow
6:28 PM 21.2 °F 6.4 °F 19.4 °F 93% 30.10 in 2.5 mi NNE 18.4 mph 24.2 mph N/A Snow Light Snow
6:33 PM 21.2 °F 4.9 °F 19.4 °F 93% 30.10 in 2.0 mi NNE 23.0 mph 28.8 mph N/A Snow Light Snow
6:38 PM 21.2 °F 7.3 °F 19.4 °F 93% 30.10 in 2.0 mi NNE 16.1 mph 28.8 mph N/A Snow Light Snow
6:53 PM 21.2 °F 8.3 °F 19.4 °F 93% 30.11 in 1.8 mi NNE 13.8 mph - N/A Snow Light Snow
6:58 PM 20.8 °F 7.9 °F 20.3 °F 98% 30.15 in 2.0 mi NNE 13.8 mph - 0.00 in Snow Light Snow
7:08 PM 21.2 °F 6.0 °F 19.4 °F 93% 30.13 in 1.8 mi North 19.6 mph 28.8 mph N/A Snow Light Snow
7:13 PM 19.4 °F 4.5 °F 19.4 °F 100% 30.13 in 1.5 mi NNE 17.3 mph 28.8 mph N/A Snow Light Snow
7:23 PM 19.4 °F 5.0 °F 17.6 °F 93% 30.14 in 1.8 mi North 16.1 mph 28.8 mph N/A Snow Light Snow
7:33 PM 19.4 °F 3.6 °F 17.6 °F 93% 30.14 in 1.8 mi NNE 19.6 mph 28.8 mph N/A Snow Light Snow
7:43 PM 19.4 °F 5.5 °F 17.6 °F 93% 30.15 in 2.0 mi NNE 15.0 mph - N/A Snow Light Snow
7:48 PM 19.4 °F 5.5 °F 17.6 °F 93% 30.15 in 2.5 mi NNE 15.0 mph - N/A Snow Light Snow
7:58 PM 17.6 °F 0.9 °F 17.6 °F 100% 30.19 in 2.0 mi NNE 20.7 mph 28.8 mph 0.00 in Snow Light Snow
8:08 PM 17.6 °F 3.7 °F 17.6 °F 100% 30.16 in 2.5 mi North 13.8 mph - N/A Snow Light Snow
8:33 PM 17.6 °F 2.7 °F 15.8 °F 93% 30.17 in 3.0 mi North 16.1 mph 23.0 mph N/A Snow Light Snow
8:43 PM 17.6 °F 3.7 °F 14.0 °F 86% 30.18 in 3.0 mi North 13.8 mph 28.8 mph N/A Snow Light Snow
8:58 PM 16.3 °F -1.2 °F 13.3 °F 88% 30.24 in 2.5 mi NNE 21.9 mph 34.5 mph 0.01 in Snow Light Snow
9:03 PM 15.8 °F 0.3 °F 12.2 °F 86% 30.19 in 3.0 mi NNE 16.1 mph 34.5 mph N/A Snow Light Snow
9:08 PM 15.8 °F 2.1 °F 12.2 °F 86% 30.20 in 3.0 mi North 12.7 mph - N/A Snow Light Snow
9:18 PM 15.8 °F -1.5 °F 12.2 °F 86% 30.21 in 2.5 mi North 20.7 mph 26.5 mph N/A Snow Light Snow
9:43 PM 14.0 °F -2.5 °F 12.2 °F 93% 30.22 in 3.0 mi NNE 17.3 mph 26.5 mph N/A Snow Light Snow
9:58 PM 14.0 °F -3.9 °F 10.4 °F 86% 30.28 in 3.0 mi North 20.7 mph 29.9 mph 0.00 in Snow Light Snow
10:08 PM 12.2 °F -4.3 °F 8.6 °F 85% 30.23 in 4.0 mi North 16.1 mph 24.2 mph N/A Snow Light Snow
10:13 PM 12.2 °F -4.8 °F 8.6 °F 85% 30.23 in 4.0 mi North 17.3 mph 24.2 mph N/A Snow Light Snow
10:18 PM 12.2 °F -7.1 °F 8.6 °F 85% 30.23 in 4.0 mi North 23.0 mph 28.8 mph N/A Snow Light Snow
10:23 PM 12.2 °F -4.3 °F 8.6 °F 85% 30.24 in 3.0 mi North 16.1 mph 29.9 mph N/A Snow Light Snow
10:28 PM 12.2 °F -5.3 °F 8.6 °F 85% 30.24 in 3.0 mi North 18.4 mph 29.9 mph N/A Snow Light Snow
10:33 PM 12.2 °F -5.8 °F 8.6 °F 85% 30.25 in 4.0 mi North 19.6 mph 26.5 mph N/A Snow Light Snow
10:53 PM 10.4 °F -8.6 °F 6.8 °F 85% 30.26 in 4.0 mi North 20.7 mph 27.6 mph N/A Snow Light Snow
10:58 PM 10.9 °F -7.0 °F 6.8 °F 83% 30.31 in 4.0 mi North 18.4 mph 28.8 mph 0.00 in Snow Light Snow
11:13 PM 10.4 °F -6.6 °F 5.0 °F 79% 30.27 in 6.0 mi North 16.1 mph 31.1 mph N/A Snow Light Snow
11:18 PM 10.4 °F -8.2 °F 5.0 °F 79% 30.27 in 7.0 mi North 19.6 mph 27.6 mph N/A Snow Light Snow
11:58 PM 9.7 °F -7.5 °F 4.8 °F 81% 30.35 in 9.0 mi North 16.1 mph 25.3 mph 0.00 in Snow Light Snow